Zurück zum Katalog

CZ-6A DEB

AktivPO
NORAD 60840·DEBRIS·🇨🇳 China

Gestartet Aug 6, 2024 von Taiyuan Satellite Launch Center

Loading…

Nächste Überflüge (nächste 24 Stunden)

TLE

AktuellSource: Space-Track

Epoche: Sep 14, 2026, 10:01 UTC

1 60840U 24140HT  26257.41790319  .00003346  00000-0  44139-3 0  9995
2 60840  88.9842 256.2238 0113552 239.2839 119.7157 14.75380977111948

Verfolge CZ-6A DEB in Echtzeit mit AllMySat

Download on the App Store